Location: Limoges
(45.8354°N, 1.2645°E)
Time: 19:57:16
(UTC+02:00)

Courier 1B Rocket - Pass Details

Date: 02 March 2024
Orbit: 920 x 1201 km, 28.2° (Epoch: 20 April)

Event Time Altitude Azimuth Distance (km) Brightness Sun altitude
Rises 03:17:16 0° 238° (WSW) 3,691 - -42.1°
Reaches altitude 10° 03:21:09 10° 217° (SW) 2,692 - -41.7°
Maximum altitude 03:24:44 15° 183° (S) 2,279 - -41.2°
Drops below altitude 10° 03:28:15 10° 148° (SSE) 2,624 - -40.7°
Exits shadow 03:31:51 - 127° (SE) 3,521 8.1 -40.2°
Sets 03:31:57 0° 127° (SE) 3,549 8.1 -40.2°
